This is the latest recevied weather packets stored in our database for station/object KE4EST. If no packets are shown the sender has not sent any weather packets the latest 10 day(s).
| Time | Temp. | Humidity | Pressure | Rain* | Wind** | Luminosity | Snow |
|---|---|---|---|---|---|---|---|
| 1778093554 | 18.89° C | 96% | 1015.5 hPa | 0 mm | - | 20 W/m² | - |
| 1778093251 | 18.89° C | 96% | 1015.4 hPa | 0 mm | - | 29 W/m² | - |
| 1778092948 | 18.89° C | 95% | 1015.4 hPa | 0 mm | - | 23 W/m² | - |
| 1778092645 | 18.89° C | 95% | 1015.4 hPa | 0 mm | - | 42 W/m² | - |
| 1778092341 | 19.44° C | 95% | 1015.3 hPa | 0 mm | - | 91 W/m² | - |
| 1778092038 | 19.44° C | 95% | 1015.4 hPa | 0 mm | - | 91 W/m² | - |
| 1778091735 | 18.89° C | 94% | 1015.2 hPa | 0 mm | - | 87 W/m² | - |
| 1778091433 | 19.44° C | 93% | 1015.2 hPa | 0 mm | - | 91 W/m² | - |
| 1778091130 | 19.44° C | 94% | 1015.6 hPa | 0 mm | - | 163 W/m² | - |
| 1778090827 | 19.44° C | 95% | 1015.4 hPa | 0 mm | - | 164 W/m² | - |
| 1778090523 | 19.44° C | 93% | 1015.2 hPa | 0 mm | - | 172 W/m² | - |
| 1778090219 | 19.44° C | 95% | 1015.4 hPa | 0 mm | - | 137 W/m² | - |
| 1778089916 | 20° C | 95% | 1015.2 hPa | 0 mm | - | 152 W/m² | - |
| 1778089609 | 19.44° C | 97% | 1015.4 hPa | 0 mm | - | 151 W/m² | - |
| 1778089306 | 18.89° C | 97% | 1015.3 hPa | 0 mm | - | 234 W/m² | - |
| 1778089004 | 18.89° C | 97% | 1015.4 hPa | 0 mm | - | 275 W/m² | - |
| 1778088700 | 18.89° C | 98% | 1015.4 hPa | 0 mm | - | 111 W/m² | - |
| 1778088397 | 18.89° C | 97% | 1015.5 hPa | 0 mm | - | 63 W/m² | - |
| 1778088093 | 18.89° C | 97% | 1015.2 hPa | 0 mm | - | 120 W/m² | - |
| 1778087791 | 18.89° C | 97% | 1015.2 hPa | 0 mm | - | 147 W/m² | - |
| 1778087489 | 18.89° C | 97% | 1015.2 hPa | 0 mm | - | 160 W/m² | - |
| 1778087186 | 18.89° C | 98% | 1015.2 hPa | 0 mm | - | 225 W/m² | - |
| 1778086883 | 18.33° C | 98% | 1015.1 hPa | 0 mm | - | 367 W/m² | - |
| 1778086581 | 18.33° C | 99% | 1015.1 hPa | 0 mm | - | 296 W/m² | - |
| 1778086277 | 17.78° C | 99% | 1015 hPa | 0 mm | - | 224 W/m² | - |
* Rain latest hour (hover to see other rain measurements)
** Current wind speed in m/s (hover to see current wind gust speed)